Location: Unspecified
(38.9820°N, 0.0000°E)
Time: 01:45:33
(UTC+00:00)

Tiangong 2 - Pass Details

Date: 26 May 2019
Orbit: 376 x 388 km, 42.8° (Epoch: 25 June)

Event Time Altitude Azimuth Distance (km) Brightness Sun altitude
Rises 19:44:54 0° 278° (W) 2,237 6.3 -5.8°
Reaches altitude 10° 19:47:02 10° 287° (WNW) 1,385 5.4 -6.2°
Maximum altitude 19:49:59 38° 358° (N) 588 2.4 -6.6°
Drops below altitude 10° 19:52:56 10° 69° (ENE) 1,382 3.5 -7.1°
Enters shadow 19:54:41 - 77° (ENE) 2,076 4.4 -7.4°
